Theta_e
319 315 316 317 315 317 318 319 319 318 318 318 321 338 336 333 331 329 328 327 328 329 331 334 335 336 338 341 344 346 343 343 343 343 342 342 341 338 332 335 342 342 344 345
316 318 318 317 317 318 319 319 319 320 318 316 330 334 332 331 329 327 327 325 325 325 326 328 329 330 332 335 334 336 342 343 343 342 338 336 336 333 330 336 340 338 343 343
317 319 319 318 319 319 317 318 319 320 318 316 321 327 335 329 326 325 325 324 323 322 321 322 322 323 325 325 327 331 332 336 338 340 341 342 344 344 343 344 343 342 341 340
317 319 320 320 321 318 320 318 319 319 316 319 315 316 332 331 328 324 324 323 323 323 321 321 322 323 324 325 327 328 330 331 330 329 331 334 337 337 335 335 337 337 337 337
320 320 320 321 321 320 320 318 319 319 314 314 314 312 317 330 330 326 324 323 323 324 323 322 322 323 324 324 324 324 324 324 323 321 320 320 322 324 325 328 331 333 334 335
320 320 320 319 318 319 318 319 314 311 312 315 315 315 315 330 330 326 326 323 322 323 323 322 321 322 322 323 321 320 320 319 318 317 316 316 315 314 314 313 315 324 327 330
320 320 320 320 320 317 315 315 316 317 313 317 315 320 316 328 327 327 325 323 321 320 319 318 320 321 321 320 319 318 317 317 316 315 313 312 311 312 312 312 312 312 316 322
320 322 321 321 319 318 317 315 316 320 316 315 318 329 327 327 327 327 325 322 322 321 320 318 320 319 318 318 318 317 317 316 314 312 310 308 307 307 307 306 307 310 311 316
320 322 320 319 320 319 319 317 314 315 314 316 318 328 327 327 326 325 325 324 323 322 321 319 318 318 318 318 317 317 316 315 313 311 311 311 311 310 309 308 307 306 306 309
318 320 319 320 319 317 318 315 316 312 318 319 316 324 326 328 327 324 324 324 323 322 321 321 319 318 318 318 317 316 314 313 311 311 311 312 312 311 310 309 309 308 307 306
316 316 318 318 318 319 316 317 315 313 314 317 318 318 319 327 325 325 324 325 325 324 322 321 321 319 319 319 318 316 315 312 311 311 312 312 312 312 312 311 310 309 310 310
318 315 318 320 319 318 317 319 314 317 317 317 317 318 315 322 325 325 325 325 325 325 324 323 322 321 319 320 319 317 315 314 312 314 313 313 313 312 312 312 312 311 310 309
317 315 315 314 318 318 319 319 317 313 312 316 316 316 316 320 321 324 325 325 326 325 325 324 323 322 320 320 320 320 315 314 312 313 314 314 314 313 313 312 312 312 312 311
318 314 314 314 317 318 321 320 319 317 317 317 316 316 316 315 316 318 317 317 318 322 324 325 324 323 322 321 321 321 317 314 312 314 315 315 315 314 314 314 312 312 312 311
311 315 317 316 318 320 320 320 320 318 317 319 318 316 314 312 314 317 322 323 323 323 323 324 324 323 322 322 322 321 318 315 314 315 315 315 315 315 315 314 314 312 311 311
313 316 320 321 321 321 321 319 318 318 318 315 314 313 315 320 322 322 322 321 320 319 321 322 322 323 323 322 322 321 317 318 316 317 317 317 316 315 314 314 313 312 312 312
315 316 317 321 320 319 319 317 318 318 316 312 312 312 318 320 321 321 321 321 321 320 319 319 320 321 322 322 322 320 319 319 318 318 317 316 314 313 312 313 312 311 311 310
315 315 314 317 318 322 317 317 318 319 318 315 316 318 319 320 320 320 319 318 318 319 320 320 320 320 321 321 321 320 319 318 315 315 315 314 312 313 314 311 310 310 310 309
314 313 315 317 317 316 318 318 319 318 319 317 316 317 318 320 319 319 319 319 318 319 320 321 320 320 320 320 318 318 316 314 314 314 313 312 311 310 309 307 306 305 305 307
313 312 314 312 317 319 316 319 317 316 318 317 315 315 316 317 313 311 319 318 318 318 318 317 317 317 317 316 315 314 313 312 311 310 309 308 308 307 306 306 305 304 306 307
315 313 314 311 313 315 314 319 318 318 315 318 316 315 314 313 314 316 319 319 318 317 317 315 314 314 313 312 312 312 311 310 309 308 307 307 306 305 304 304 305 306 306 306
315 314 313 311 312 318 316 318 316 315 318 315 314 313 313 313 313 316 318 317 317 316 314 314 314 313 311 311 311 311 309 308 307 306 306 305 304 303 304 304 305 305 305 305
317 314 315 314 314 314 317 316 318 318 315 313 313 312 312 313 313 315 315 316 315 313 312 311 310 310 309 307 307 307 307 306 305 304 303 302 302 301 301 301 303 304 304 303
313 315 315 314 313 314 316 317 318 316 313 312 312 312 312 312 313 313 314 314 313 310 309 309 308 308 307 306 306 305 303 303 303 303 303 302 301 300 300 301 303 302 302 302
312 313 312 312 313 313 313 314 313 312 312 312 312 312 312 311 312 313 313 311 309 309 308 308 307 306 305 304 304 303 304 304 304 303 302 301 300 301 301 301 302 301 301 301
312 311 311 312 314 313 312 312 312 311 311 311 311 312 312 312 311 311 309 309 309 308 306 305 304 303 303 303 303 303 304 303 303 302 301 300 300 300 300 300 301 301 301 300
Wind_Speed
3 5 2 6 7 3 3 2 3 5 7 7 8 10 7 10 18 19 18 17 16 16 14 13 12 8 4 2 1 10 11 14 17 20 23 24 27 28 25 29 30 28 29 30
6 2 7 3 4 5 5 4 4 3 6 8 9 9 8 10 6 14 17 15 15 15 14 13 12 11 9 7 4 3 5 8 13 14 15 19 24 25 24 24 27 28 27 25
6 5 1 4 3 8 4 6 2 2 4 6 7 4 5 6 11 13 17 16 15 15 14 13 13 12 12 11 10 9 9 11 10 9 9 12 16 17 15 17 20 21 22 21
3 2 2 4 4 4 3 3 4 3 4 2 4 3 3 4 4 7 15 16 16 15 14 13 13 14 14 17 15 13 13 13 15 15 13 12 12 13 12 12 13 15 15 14
4 1 3 3 2 4 4 3 2 2 4 4 2 4 1 5 6 5 8 14 16 15 13 12 11 10 12 12 12 13 13 13 15 17 16 15 14 15 13 10 10 11 11 9
2 4 3 5 3 2 3 3 6 4 3 2 4 5 4 7 7 5 8 13 15 15 13 9 8 9 10 9 9 11 12 14 15 15 14 15 15 16 14 14 13 11 9 8
5 4 5 4 4 6 7 6 4 5 4 5 2 2 6 2 10 12 18 17 12 9 9 8 7 7 7 7 8 9 11 11 11 12 14 14 14 14 14 14 13 12 11 11
3 3 3 1 2 5 4 6 5 3 3 5 3 3 5 4 10 14 16 13 11 11 10 8 7 5 4 5 6 8 8 8 10 11 12 14 15 17 17 16 15 14 13 12
4 1 4 6 2 4 3 1 3 5 2 2 2 1 3 2 2 7 12 14 16 13 12 10 7 5 3 3 3 4 4 5 7 9 11 14 16 17 18 18 17 16 15 13
5 3 3 4 5 7 3 5 3 3 2 4 4 3 4 7 10 7 11 21 20 16 15 13 10 8 4 2 1 2 2 2 4 6 9 13 16 17 18 18 19 18 16 14
4 4 4 2 1 2 4 1 5 4 4 5 2 5 5 14 14 14 21 28 24 21 20 17 14 11 7 4 1 1 2 2 3 2 7 9 13 15 17 19 22 22 21 19
2 5 2 3 5 5 4 3 4 5 4 2 3 6 4 7 16 22 27 31 27 26 22 19 15 13 11 7 4 1 4 5 3 2 3 6 10 12 13 15 17 19 21 21
6 2 3 6 6 6 5 3 4 3 2 5 5 5 2 6 7 21 25 25 27 27 25 21 19 19 15 11 7 4 4 5 6 5 1 4 8 10 12 14 14 16 19 20
7 3 6 6 4 2 2 4 2 3 2 3 5 6 8 6 6 5 7 14 19 23 21 20 20 22 18 15 10 8 5 8 10 5 2 5 7 10 12 13 13 13 17 18
5 4 4 4 4 2 3 5 5 6 6 5 6 5 4 5 4 9 12 12 8 4 7 13 19 21 21 18 16 11 6 10 9 11 10 8 9 15 17 17 13 13 15 15
2 2 2 1 3 0 4 8 10 12 7 6 6 2 2 3 17 15 12 12 11 9 5 2 7 14 20 21 20 15 11 10 13 14 17 19 21 20 16 14 9 13 12 14
4 6 3 3 1 4 6 5 6 1 4 4 5 5 2 3 11 10 9 9 8 7 6 4 1 4 11 19 21 19 20 13 16 17 15 10 13 8 8 10 11 12 13 15
5 5 3 3 3 3 6 2 6 9 4 5 7 5 5 8 8 8 7 6 4 2 1 1 2 3 6 11 16 21 18 13 6 8 10 8 10 15 19 17 17 20 21 21
6 5 3 4 4 5 3 5 6 4 2 2 6 7 10 10 7 3 4 1 1 2 3 4 5 5 7 8 7 7 2 5 8 9 15 12 13 15 18 20 22 23 25 22
6 4 5 4 4 6 6 4 2 6 1 12 10 11 11 10 0 4 9 8 8 7 7 6 6 6 6 5 4 5 6 9 10 8 12 15 18 19 22 24 26 26 17 13
3 2 6 3 3 6 6 7 0 4 6 14 12 12 12 6 6 5 14 11 9 9 9 7 5 4 4 5 6 10 10 8 10 11 15 19 22 25 26 25 19 15 13 12
6 6 4 3 3 6 10 3 7 6 13 16 14 11 7 4 3 5 8 8 8 8 7 6 8 11 13 14 15 12 10 10 13 17 20 23 23 20 18 17 15 13 12 12
1 6 5 7 6 4 7 3 7 17 20 13 12 10 6 6 4 4 3 8 8 6 6 7 7 6 4 4 5 8 13 16 17 18 16 14 16 18 19 19 17 15 13 17
2 3 3 4 3 5 10 10 14 15 17 13 8 7 6 4 4 4 8 7 5 4 4 2 2 7 6 9 13 15 13 10 12 13 14 16 20 20 18 15 15 15 16 17
3 2 3 1 2 8 8 13 15 12 11 12 12 9 7 4 4 5 8 6 5 3 2 3 4 5 9 11 11 11 14 13 13 14 15 19 17 16 14 12 12 12 13 14
6 5 4 5 14 7 15 14 12 11 13 10 10 10 6 2 5 9 8 7 4 3 2 3 7 6 8 11 12 13 10 11 13 12 16 16 14 13 13 12 10 12 15 12
Wind_Direction
14 59 209 222 205 164 149 118 80 331 342 75 99 99 87 85 83 88 95 97 89 85 81 88 94 96 76 32 333 230 239 238 251 242 237 239 247 255 277 262 267 282 277 275
15 251 234 234 93 105 82 99 345 310 0 91 106 80 56 42 55 105 119 115 109 102 100 97 95 90 80 74 59 356 321 287 280 287 281 274 272 282 290 288 287 290 291 288
174 241 165 138 109 91 29 111 81 121 344 56 112 104 112 49 78 101 123 134 134 134 120 103 92 81 73 65 52 37 11 1 356 355 345 324 307 303 304 303 308 315 319 325
207 309 127 103 94 129 108 188 132 90 59 216 45 250 140 153 140 140 141 141 146 144 140 122 104 88 68 57 52 45 39 26 26 24 17 7 353 357 3 348 335 330 337 345
264 101 108 94 138 126 189 151 77 123 120 103 343 103 208 153 199 190 170 159 159 154 141 128 108 82 67 58 40 34 32 23 17 11 12 17 23 26 23 18 10 3 6 0
290 341 128 157 59 40 109 79 55 62 101 63 237 140 239 192 189 155 197 180 166 157 148 130 103 80 71 67 49 33 21 16 18 24 26 31 33 36 34 36 35 23 18 26
6 348 330 97 78 21 68 55 350 351 7 220 244 67 246 179 165 172 190 181 163 144 132 116 106 100 81 63 49 32 20 23 33 29 25 27 30 28 26 29 30 28 23 19
144 322 358 70 126 149 71 131 149 242 239 270 291 232 279 193 190 183 181 174 172 172 162 148 140 124 100 70 47 29 30 30 30 34 37 39 38 37 35 27 19 16 14 10
139 229 330 36 89 103 163 68 172 104 6 12 238 357 346 104 214 195 199 199 202 196 188 177 172 164 140 89 50 41 47 38 47 48 53 45 35 30 30 32 29 23 15 6
188 113 348 329 38 34 87 155 70 9 224 263 295 256 226 202 213 206 215 218 217 212 208 201 200 204 202 165 68 85 81 59 74 67 42 25 27 28 30 29 30 28 22 12
109 98 275 3 77 151 356 21 51 118 145 187 271 267 214 205 198 204 216 220 221 220 219 214 215 212 208 197 174 162 221 170 124 46 12 24 23 27 26 27 26 25 25 24
46 121 133 244 297 295 192 131 127 128 233 222 154 275 293 220 202 200 218 224 230 234 235 231 227 224 224 210 207 246 242 208 216 286 56 31 14 14 18 15 15 16 20 20
177 36 44 353 354 1 61 40 107 120 79 202 143 262 328 183 205 226 231 237 244 245 241 239 232 230 229 224 218 265 242 209 179 155 27 9 358 356 356 351 353 357 359 2
106 112 155 193 189 177 307 329 4 121 118 231 228 274 299 323 270 239 221 246 253 245 251 241 236 235 236 237 234 249 249 223 201 214 320 327 342 339 330 325 324 332 341 347
105 142 164 169 193 202 225 270 271 198 213 193 256 225 298 311 2 89 104 108 107 143 217 233 239 240 241 244 244 245 251 243 235 255 274 310 317 309 309 306 298 307 325 333
4 165 109 168 214 144 281 278 272 263 232 233 221 176 309 59 108 95 92 93 89 84 85 256 266 263 254 253 252 246 290 265 247 261 282 284 289 297 301 304 287 302 312 318
117 132 101 238 296 22 316 229 250 318 38 168 165 197 148 77 89 96 101 99 94 81 64 50 338 263 256 248 246 242 284 254 261 265 273 265 270 289 302 300 297 307 310 315
134 111 108 182 61 219 241 307 114 106 30 56 86 117 151 123 107 103 83 50 56 69 49 332 292 267 244 242 249 265 270 261 267 261 250 260 291 303 302 307 313 314 314 318
161 129 125 150 192 291 288 153 166 153 224 264 133 142 146 136 118 130 157 158 153 192 208 216 220 233 238 248 267 283 286 238 266 299 303 306 313 318 313 314 316 318 311 309
86 62 128 146 166 216 229 263 136 121 231 200 170 173 182 188 102 253 200 201 204 209 212 227 222 200 209 223 229 272 284 312 325 315 315 322 320 318 319 317 321 321 307 306
106 62 170 144 199 281 226 229 270 167 236 174 183 175 172 178 198 207 203 213 224 227 226 215 189 211 213 250 285 297 298 304 300 312 316 317 317 318 319 322 321 327 322 309
159 152 177 104 108 269 184 139 168 186 147 156 159 161 158 159 168 165 194 211 213 210 195 213 247 276 291 293 298 310 312 311 313 312 313 316 321 330 333 330 329 329 329 324
245 177 178 170 210 232 169 191 159 156 155 162 166 169 184 171 164 162 203 209 212 219 259 279 291 314 340 1 340 319 313 309 308 312 321 329 335 331 327 324 324 323 328 328
315 151 127 101 243 204 176 165 168 167 166 171 182 187 194 200 179 205 204 200 204 258 274 304 310 311 316 321 322 325 329 335 339 334 334 334 331 327 327 328 324 325 333 332
211 93 131 60 49 116 147 156 152 154 164 168 174 180 187 205 194 193 181 185 192 208 225 233 266 307 318 318 321 325 323 324 331 332 331 332 334 338 345 345 333 333 333 338
189 178 160 218 193 170 175 163 166 173 173 190 198 187 195 216 192 179 180 184 190 185 157 310 327 331 331 327 317 312 311 314 318 324 331 334 336 340 346 341 333 333 333 330